NOAA 16 DEB, 41363

Orbit data source: Space-Track

NOAA 16 DEB, 41363 is space debris in SSO originally from a launch on Thu, 21 Sep 2000 UTC launched from the Air Force Western Test Range (AFWTR). Debris objects in space refer to the collection of defunct objects orbiting the Earth. Examples of debris include non-operational satellites, rocket bodies, and fragments generated from explosions, collisions, or faulty payload assembly.

Loading next visibility...
Identifier
41363, 2000-055JG
Orbit
SSO
Country
Flag of USUS
Related business
Manufacturer
Unknown
Mission
Spacecraft
Bus & Motor
Unknown
Mass
Unknown
Launch date (UTC)
2000-09-21 (25 years ago)
Launch vehicle
Unknown
Launch site
Air Force Western Test Range (AFWTR)
Object type
Payload
Rocket body
Debris
Shape & HBR
Unknown shape, 0.1 m
Radar Cross Section
Small (<0.1 m²)

Expand to show TLE details & history
Last TLE update: 1 day ago

TLE from 1 day ago
0 NOAA 16 DEB
1 41363U 00055JG  26033.49475917  .00036366  00000-0  46946-2 0  9992
2 41363  98.9062 231.5134 0010696  75.3893 284.8501 14.80815015521109
Epoch: 2026-02-02T11:52Z
TLE epoch observation values (Epoch: 2026-02-02T11:52:27.192Z)
Latitude
-0.00007°
Longitude
-79.28912°
Altitude
627.83 km
Speed
7.546 km/s
True Right ascension
15h 26m 03s
True Declination
0° 00' 00"
Sunlit
Object was in daylight at epoch
Visualization orbit readout
Latitude
Unknown
Longitude
Unknown
Altitude
Unknown
Speed
Unknown
Apparent Right ascension
Unknown
Apparent Declination
Unknown
Sunlit
N/A
Visualization observer readout
Local Sidereal Time
14:24:22
Azimuth
Unknown
Elevation
Unknown
Doppler factor
Unknown
Orbital elements
Apogee altitude
631.33 km
Perigee altitude
616.351 km
Semi-major axis
7,001.977 km
Eccentricity
0.00107
Inclination
98.9062°
RAAN
231.5134°
Arg. of periapsis
75.3893°
True anomaly
284.73159°
Mean anomaly
284.8501°
Eccentric anomaly
284.79085°
Mean motion
3.70435 °/min
Orbital period
97.18 mins
BSTAR
0.0046946
Loading maneuver chart data...
Computing Atmospheric mass density...
Loading historical data...
Loading historical data...
Loading historical data...
Loading historical data...
Loading historical data...
Loading historical data...
Loading historical data...

Documentation

Showing up to 5 results
|